Weather History for Oscoda, MI

Change the Weather History Date:

Thursday, August 1, 2013

  Actual Average Record
Temperature  
Mean Temperature 64 °F -  
Max Temperature 75 °F 77 °F 100 °F (2006)
Min Temperature 54 °F 57 °F 46 °F (1998)
Growing Degree Days 14 (Base 50)    
Moisture  
Dew Point 59 °F    
Average Humidity 81    
Maximum Humidity 98    
Minimum Humidity 56    
Precipitation  
Precipitation 0.00 in - - ()
Sea Level Pressure  
Sea Level Pressure 29.87 in    
Wind  
Wind Speed 4 mph (WSW)    
Max Wind Speed 16 mph    
Max Gust Speed 29 mph    
Visibility 10 miles    
Events Rain    
Averages and records for this station are not official NWS values.
T = Trace of Precipitation, MM = Missing Value Source: NWS Daily Summary

Daily Weather History Graph

Daily Weather History Graph

Search for Another Location

Airport:

Trip Planner

Search our weather history database for the weather conditions in past years. The results will help you decide how hot, cold, wet, or windy it might be!

Date:

Astronomy

Aug. 01, 2013 Rise Set
Actual Time 6:20 AM EDT 8:58 PM EDT
Civil Twilight 5:47 AM EDT 9:31 PM EDT
Nautical Twilight 5:05 AM EDT 10:13 PM EDT
Astronomical Twilight 4:17 AM EDT 11:00 PM EDT
Moon 1:55 AM EDT (8/1) 5:07 PM EDT (8/1)
Length of Visible Light 15h 43m
Length of Day
14h 37m
Waning Crescent, 23% of the Moon is Illuminated
Aug 1
Waning Crescent
Aug 6
New
Aug 14
First Quarter
Aug 20
Full
Aug 28
Last Quarter

Hourly Weather History & Observations

Time (EDT) Temp. Dew Point Humidity Pressure Visibility Wind Dir Wind Speed Gust Speed Precip Events Conditions
12:13 AM 64.4 °F 61.3 °F 90% 29.90 in 10.0 mi North 9.2 mph - N/A   Overcast
12:34 AM 63.5 °F 61.0 °F 91% 29.91 in 10.0 mi Calm Calm - N/A   Overcast
12:54 AM 63.5 °F 58.8 °F 85% 29.90 in 10.0 mi NNW 4.6 mph - N/A   Overcast
1:13 AM 62.4 °F 58.3 °F 86% 29.90 in 10.0 mi WNW 6.9 mph - N/A Rain Light Rain
1:34 AM 60.8 °F 57.6 °F 89% 29.88 in 10.0 mi North 3.5 mph - N/A Rain Light Rain
1:54 AM 60.8 °F 57.9 °F 90% 29.87 in 10.0 mi Calm Calm - N/A Rain Light Rain
2:13 AM 60.1 °F 57.7 °F 92% 29.87 in 10.0 mi Calm Calm - N/A   Overcast
2:34 AM 60.1 °F 57.7 °F 92% 29.87 in 10.0 mi SW 3.5 mph - N/A   Overcast
2:54 AM 59.9 °F 57.4 °F 91% 29.85 in 10.0 mi Calm Calm - N/A Rain Light Rain
3:13 AM 60.4 °F 57.6 °F 90% 29.84 in 10.0 mi Calm Calm - N/A   Overcast
3:34 AM 59.4 °F 57.2 °F 93% 29.85 in 10.0 mi NW 6.9 mph - N/A   Overcast
3:54 AM 58.6 °F 56.7 °F 93% 29.85 in 10.0 mi WNW 3.5 mph - N/A   Overcast
4:14 AM 57.2 °F 55.8 °F 95% 29.85 in 10.0 mi SW 5.8 mph - N/A   Scattered Clouds
4:34 AM 57.2 °F 56.1 °F 96% 29.85 in 10.0 mi WSW 3.5 mph - N/A   Clear
4:54 AM 56.5 °F 55.8 °F 97% 29.85 in 10.0 mi Calm Calm - N/A   Clear
5:14 AM 54.9 °F 54.1 °F 97% 29.86 in 10.0 mi WSW 4.6 mph - N/A   Clear
5:34 AM 56.1 °F 55.6 °F 98% 29.87 in 10.0 mi Calm Calm - N/A   Scattered Clouds
5:54 AM 56.7 °F 55.9 °F 97% 29.87 in 10.0 mi Calm Calm - N/A   Scattered Clouds
6:14 AM 55.0 °F 53.8 °F 96% 29.87 in 10.0 mi Calm Calm - N/A   Clear
6:34 AM 55.6 °F 54.9 °F 97% 29.87 in 10.0 mi Calm Calm - N/A   Mostly Cloudy
6:54 AM 56.5 °F 55.8 °F 97% 29.88 in 10.0 mi Calm Calm - N/A   Mostly Cloudy
7:14 AM 57.0 °F 56.3 °F 97% 29.88 in 10.0 mi Calm Calm - N/A   Scattered Clouds
7:34 AM 58.1 °F 56.8 °F 96% 29.88 in 10.0 mi Calm Calm - N/A   Clear
7:54 AM 58.8 °F 57.4 °F 95% 29.88 in 10.0 mi Calm Calm - N/A   Clear
8:14 AM 61.3 °F 58.5 °F 90% 29.88 in 10.0 mi Calm Calm - N/A   Clear
8:34 AM 63.7 °F 59.4 °F 86% 29.87 in 10.0 mi West 3.5 mph - N/A   Clear
8:54 AM 65.3 °F 59.9 °F 83% 29.87 in 10.0 mi West 8.1 mph - N/A   Clear
9:14 AM 67.1 °F 60.4 °F 79% 29.87 in 10.0 mi West 6.9 mph - N/A   Clear
9:34 AM 68.4 °F 60.8 °F 77% 29.87 in 10.0 mi West 6.9 mph - N/A   Clear
9:53 AM 68.2 °F 61.0 °F 78% 29.87 in 10.0 mi West 6.9 mph - N/A   Clear
10:14 AM 69.8 °F 61.2 °F 74% 29.87 in 10.0 mi West 6.9 mph - N/A   Clear
10:34 AM 69.6 °F 60.1 °F 72% 29.87 in 10.0 mi WNW 4.6 mph - N/A   Clear
10:53 AM 71.4 °F 60.6 °F 69% 29.87 in 10.0 mi Calm Calm - N/A   Clear
11:14 AM 71.8 °F 59.0 °F 64% 29.86 in 10.0 mi West 5.8 mph - N/A   Clear
11:34 AM 72.9 °F 58.5 °F 60% 29.86 in 10.0 mi WNW 8.1 mph - N/A   Scattered Clouds
11:53 AM 74.5 °F 57.7 °F 56% 29.86 in 10.0 mi NW 5.8 mph - N/A   Scattered Clouds
12:14 PM 73.0 °F 59.5 °F 62% 29.86 in 10.0 mi WSW 6.9 mph - N/A   Mostly Cloudy
12:34 PM 73.9 °F 58.5 °F 58% 29.87 in 10.0 mi Calm Calm - N/A   Mostly Cloudy
12:53 PM 70.9 °F 61.9 °F 73% 29.87 in 10.0 mi ENE 6.9 mph - N/A   Overcast
1:14 PM 71.2 °F 61.9 °F 72% 29.87 in 10.0 mi East 10.4 mph - N/A   Mostly Cloudy
1:34 PM 70.9 °F 62.2 °F 74% 29.86 in 10.0 mi East 6.9 mph - N/A   Mostly Cloudy
1:53 PM 72.7 °F 62.8 °F 71% 29.85 in 10.0 mi East 8.1 mph - N/A   Mostly Cloudy
2:14 PM 73.4 °F 63.3 °F 71% 29.85 in 10.0 mi East 9.2 mph - N/A   Scattered Clouds
2:34 PM 73.6 °F 61.7 °F 66% 29.85 in 10.0 mi East 8.1 mph - N/A   Mostly Cloudy
2:54 PM 75.7 °F 60.4 °F 59% 29.84 in 10.0 mi ESE 6.9 mph - N/A   Overcast
3:14 PM 71.4 °F 61.9 °F 72% 29.85 in 10.0 mi NE 16.1 mph 28.8 mph N/A   Mostly Cloudy
3:34 PM 70.7 °F 61.3 °F 72% 29.86 in 10.0 mi ENE 10.4 mph - N/A   Mostly Cloudy
3:53 PM 70.3 °F 60.4 °F 71% 29.85 in 10.0 mi East 9.2 mph - N/A   Mostly Cloudy
4:14 PM 70.9 °F 58.8 °F 66% 29.86 in 10.0 mi East 6.9 mph - N/A   Scattered Clouds
4:34 PM 72.3 °F 58.1 °F 61% 29.86 in 10.0 mi SE 6.9 mph - N/A   Scattered Clouds
4:54 PM 69.6 °F 59.0 °F 69% 29.87 in 10.0 mi East 6.9 mph - N/A   Scattered Clouds
5:14 PM 68.2 °F 58.1 °F 70% 29.87 in 10.0 mi Calm Calm - N/A   Mostly Cloudy
5:34 PM 69.6 °F 59.7 °F 71% 29.86 in 10.0 mi SE 4.6 mph - N/A   Mostly Cloudy
5:54 PM 70.5 °F 61.0 °F 72% 29.86 in 10.0 mi SE 4.6 mph - N/A Rain Light Rain
6:14 PM 70.7 °F 60.3 °F 69% 29.86 in 10.0 mi Calm Calm - N/A   Mostly Cloudy
6:34 PM 71.6 °F 60.4 °F 68% 29.85 in 10.0 mi South 3.5 mph - N/A   Scattered Clouds
6:54 PM 71.6 °F 57.4 °F 61% 29.86 in 10.0 mi South 3.5 mph - N/A   Clear
7:14 PM 70.9 °F 59.7 °F 68% 29.85 in 10.0 mi SSW 5.8 mph - N/A   Scattered Clouds
7:34 PM 69.8 °F 61.0 °F 73% 29.86 in 10.0 mi SSW 4.6 mph - N/A   Mostly Cloudy
7:54 PM 68.4 °F 62.4 °F 81% 29.86 in 10.0 mi SSW 3.5 mph - N/A   Overcast
8:14 PM 68.2 °F 61.0 °F 78% 29.86 in 10.0 mi SW 4.6 mph - N/A   Mostly Cloudy
8:34 PM 67.6 °F 60.8 °F 79% 29.86 in 10.0 mi SW 4.6 mph - N/A   Mostly Cloudy
8:54 PM 66.6 °F 61.0 °F 82% 29.86 in 10.0 mi WSW 4.6 mph - N/A   Mostly Cloudy
9:14 PM 66.2 °F 61.0 °F 83% 29.86 in 10.0 mi Calm Calm - N/A   Mostly Cloudy
9:34 PM 64.9 °F 60.4 °F 85% 29.87 in 10.0 mi NE 3.5 mph - N/A   Scattered Clouds
9:54 PM 64.8 °F 60.8 °F 87% 29.87 in 10.0 mi Calm Calm - N/A   Scattered Clouds
10:14 PM 65.3 °F 60.6 °F 85% 29.87 in 10.0 mi Calm Calm - N/A   Clear
10:34 PM 60.8 °F 58.5 °F 92% 29.88 in 10.0 mi NW 3.5 mph - N/A   Clear
10:54 PM 61.9 °F 59.2 °F 91% 29.88 in 10.0 mi Calm Calm - N/A   Clear
11:14 PM 59.2 °F 57.9 °F 96% 29.89 in 10.0 mi WNW 3.5 mph - N/A   Mostly Cloudy
11:33 PM 59.7 °F 58.6 °F 96% 29.89 in 10.0 mi West 3.5 mph - N/A   Overcast
11:54 PM 58.6 °F 57.6 °F 96% 29.89 in 10.0 mi Calm Calm - N/A   Mostly Cloudy